GEFSNGP_500_meanwind_000.txt.gz
Wind_Speed
21 23 24 24 26 27 29 32 35 35 36 37 39 41 44 47 49 51 52 55 56 58 59 62 61 58 51 49 54 60 65 64 64 60 53 53 52 51 48 42 37 33 27 28
22 26 27 28 31 33 33 34 35 36 39 40 43 46 49 52 54 55 56 58 59 63 65 59 54 53 53 63 67 71 73 72 70 66 59 57 56 52 48 43 37 34 28 28
25 24 27 28 30 31 33 35 38 41 42 44 47 51 56 58 55 56 60 61 60 65 66 73 80 77 77 78 75 71 70 71 73 73 70 64 58 50 45 42 38 35 30 28
28 28 30 33 33 35 38 40 42 44 46 49 46 49 50 52 62 61 71 64 71 75 83 82 82 82 82 80 77 75 74 78 78 72 67 63 58 48 45 43 40 36 30 28
31 31 33 38 41 42 44 45 44 46 48 50 55 58 60 70 76 75 78 83 89 88 88 87 87 87 85 84 85 86 85 81 78 75 70 63 58 51 48 46 43 39 32 30
33 35 37 39 41 43 44 46 47 50 52 56 61 66 69 74 78 81 84 87 90 92 91 91 91 91 88 84 84 82 77 72 69 64 60 55 52 49 52 49 44 41 35 31
32 34 36 37 37 41 45 49 52 57 61 66 71 76 79 80 82 84 85 88 89 88 88 84 81 78 77 73 67 61 53 46 45 42 38 38 42 47 51 51 44 40 39 34
32 33 35 37 42 47 52 57 62 67 72 76 80 82 83 84 84 82 78 74 72 70 65 59 57 55 54 51 46 42 40 37 37 36 36 38 37 37 45 52 49 47 40 39
34 36 42 49 53 56 61 66 71 76 79 82 83 82 79 73 67 62 57 55 51 47 42 43 42 40 39 38 38 37 38 39 40 43 43 39 39 39 41 53 52 45 41 43
43 48 50 54 58 62 68 73 77 79 80 78 73 68 62 59 54 49 42 38 35 37 40 38 38 40 37 36 39 42 42 42 42 41 41 40 35 33 39 54 55 38 38 43
47 50 53 58 63 69 75 79 81 79 72 66 61 58 53 44 40 38 37 39 39 41 42 43 44 45 45 42 39 41 43 43 41 39 38 35 33 36 42 58 64 48 44 39
50 55 59 63 67 73 78 80 78 72 64 55 52 45 42 43 46 49 51 53 54 55 57 58 58 56 53 52 50 46 43 39 38 36 35 33 35 42 44 61 69 54 48 37
56 60 63 68 73 77 79 76 69 61 52 43 38 40 45 49 53 56 61 65 67 66 65 63 60 55 51 50 49 48 45 37 33 31 31 31 33 30 39 60 55 50 48 40
59 62 66 72 76 78 76 68 57 47 38 34 37 43 50 55 58 60 63 67 68 66 61 58 55 49 43 39 38 38 35 31 27 26 26 23 21 28 46 44 48 53 44 41
59 64 71 77 78 77 71 61 48 35 32 35 42 49 54 57 56 58 64 64 61 59 54 49 45 38 32 30 28 27 25 23 21 22 19 17 26 47 44 37 54 49 45 41
63 68 74 77 79 78 68 53 36 31 34 40 47 53 54 56 58 59 62 61 58 56 48 38 29 24 24 24 22 21 19 21 21 21 19 21 38 42 31 43 47 45 43 37
66 70 75 79 80 74 59 39 30 32 38 43 48 52 54 53 53 54 55 56 53 49 42 34 22 15 15 19 21 18 16 19 22 22 19 29 42 35 37 42 39 42 40 34
69 74 77 79 77 66 44 31 30 36 40 45 49 52 54 52 50 50 50 53 49 42 37 31 15 8 11 12 15 18 20 22 24 22 25 40 43 40 39 37 35 37 35 32
70 74 77 74 69 59 40 32 34 38 42 46 50 54 56 55 52 47 45 45 43 40 35 28 20 14 10 11 13 14 18 23 25 28 38 48 40 38 38 35 35 34 33 30
70 74 76 72 65 55 39 35 37 40 43 47 51 56 57 55 48 44 43 40 37 36 36 29 21 17 9 3 5 11 16 24 33 40 51 54 41 39 36 31 31 35 34 30
69 73 75 72 64 52 39 36 37 40 44 49 51 53 52 50 45 41 42 45 40 35 32 31 20 12 11 15 16 18 26 37 44 49 55 48 45 47 42 36 34 32 28 26
69 72 73 71 66 52 38 36 37 40 46 49 50 50 47 46 44 40 41 43 40 37 34 31 22 7 9 15 24 34 41 44 46 49 47 46 47 45 38 36 34 28 24 22
69 71 72 69 66 52 36 34 36 39 44 48 50 49 45 44 45 40 40 41 40 37 30 25 23 25 29 31 33 40 43 42 39 39 41 45 45 40 35 35 32 25 21 19
67 69 70 68 65 51 35 31 34 38 42 45 46 45 43 40 38 39 40 40 41 36 29 25 27 33 35 34 38 40 37 35 35 36 38 39 37 32 30 33 35 30 23 19
67 67 68 66 61 49 34 30 32 36 39 41 41 39 37 37 35 33 34 34 33 32 30 34 40 44 44 40 38 38 39 38 38 37 33 30 28 25 22 26 33 32 24 20
66 67 67 64 58 48 35 32 33 36 38 39 38 34 31 31 30 28 30 31 31 29 30 32 35 37 37 34 35 36 35 35 34 31 27 24 21 19 21 28 35 30 24 20
65 67 67 60 54 46 36 31 31 33 36 39 37 30 26 25 25 25 27 27 25 25 28 29 28 27 27 26 27 27 27 26 24 20 17 15 14 16 19 24 29 29 26 22

GEFSNGP_500_meanwind_006.txt.gz
Wind_Speed
21 22 24 26 27 28 30 32 33 36 39 42 44 45 45 45 46 47 48 51 54 56 58 60 65 69 70 72 73 72 73 75 75 75 75 72 67 61 56 55 52 50 47 43
22 24 27 29 30 31 32 33 35 37 40 43 46 49 50 52 56 58 60 62 64 66 68 68 70 74 77 77 76 75 75 75 72 72 72 70 69 69 70 68 63 56 49 45
25 27 30 31 30 32 33 34 36 40 46 50 53 56 58 61 65 68 71 73 75 76 77 77 78 79 81 84 87 89 89 86 83 80 78 79 80 80 81 77 69 61 53 48
25 26 26 28 30 33 35 37 41 47 52 55 59 63 66 70 74 78 80 82 83 82 80 78 75 72 71 71 72 74 76 78 81 84 86 86 86 84 81 76 69 64 58 51
23 25 30 30 33 37 41 44 48 52 56 60 64 68 73 77 81 83 82 79 74 68 62 55 48 43 40 40 42 44 46 49 52 56 61 66 69 70 69 68 65 61 58 52
26 28 31 35 37 41 45 49 54 57 61 66 71 75 77 79 79 74 66 57 50 42 37 34 34 36 38 40 40 39 39 40 39 38 38 42 46 51 55 57 57 56 53 49
27 31 34 37 41 44 48 53 56 61 66 71 75 77 76 69 58 49 41 35 32 32 34 37 41 44 46 46 45 44 44 43 41 37 34 34 36 39 44 49 53 54 52 49
31 34 39 42 45 49 53 57 61 66 71 75 76 71 59 48 40 35 32 33 36 39 43 46 48 49 49 49 49 49 48 46 44 39 34 32 31 30 31 34 40 47 52 55
34 37 41 46 50 54 57 60 65 70 75 76 70 56 43 36 34 35 38 41 45 47 49 50 51 52 51 51 52 53 52 50 47 44 38 33 29 26 25 26 27 33 44 55
37 40 44 48 52 55 59 64 70 75 77 72 57 44 37 36 38 41 44 46 49 50 50 49 50 51 53 54 55 56 55 52 49 46 43 37 32 28 26 26 27 28 34 47
43 46 48 51 55 59 63 69 74 77 73 62 48 40 38 40 43 47 49 51 53 53 51 50 49 50 51 53 55 54 51 48 46 45 43 40 36 31 29 30 30 31 33 40
45 48 50 54 58 62 67 71 76 76 67 51 43 40 42 45 49 52 53 55 54 53 53 51 50 50 50 51 51 49 45 41 40 40 42 41 37 34 32 31 33 32 32 34
47 49 52 56 60 64 69 74 76 72 59 45 40 42 45 49 52 55 56 55 55 55 54 51 49 47 46 46 45 42 37 33 32 34 38 39 38 35 32 31 32 32 32 32
50 52 53 57 61 66 72 76 76 67 51 42 41 43 48 52 54 55 55 54 55 55 52 48 45 44 42 40 38 34 27 22 23 29 34 36 36 34 32 31 31 31 31 31
49 52 55 59 62 68 74 78 75 60 44 39 41 46 51 53 54 54 54 53 53 50 46 42 41 39 36 34 30 25 17 13 16 24 29 31 32 33 32 31 31 31 31 32
50 53 57 60 63 69 76 79 72 55 41 39 44 49 52 54 54 54 52 51 50 46 41 38 37 34 30 27 22 15 9 7 13 19 23 27 29 30 31 31 32 33 34 35
51 55 58 61 64 70 76 77 68 51 41 43 47 51 53 54 52 50 49 48 46 42 39 35 33 29 24 19 13 7 1 5 12 17 21 24 25 26 27 29 32 35 36 38
52 55 59 62 65 70 76 75 64 48 43 45 50 52 53 51 49 48 48 48 44 40 36 33 29 25 18 11 6 4 6 9 13 17 20 21 22 23 24 26 29 33 38 41
52 55 58 61 65 70 75 73 60 45 43 46 50 51 50 48 48 48 49 48 47 42 36 32 26 20 13 8 8 10 12 14 16 18 20 20 22 24 26 29 32 36 39 42
52 54 57 61 64 69 74 70 57 44 43 47 49 49 46 45 46 47 48 47 46 42 37 32 26 18 15 14 14 15 17 19 21 23 25 28 31 32 33 36 39 42 42 41
51 53 57 60 63 68 72 69 56 43 42 46 48 46 43 43 45 47 46 45 45 43 39 33 28 24 22 21 22 23 25 27 30 32 34 35 37 39 40 41 42 41 39 36
50 52 56 59 62 66 70 67 55 42 40 43 44 41 40 40 42 44 44 46 45 45 42 37 32 30 29 30 30 32 34 36 37 37 38 38 39 39 40 39 37 36 34 31
49 52 55 58 60 64 68 65 53 39 37 39 39 37 36 37 41 42 43 45 45 44 43 39 35 33 34 35 37 39 40 40 39 38 37 35 34 34 34 34 33 32 31 30
48 50 53 57 59 62 66 63 52 37 33 36 36 32 30 31 34 37 38 39 39 39 38 36 33 31 32 34 37 37 37 37 35 33 31 31 31 31 31 31 29 28 28 27
47 49 52 55 57 60 64 63 51 34 28 30 31 28 26 26 28 31 32 32 32 32 31 31 29 27 27 28 29 30 31 31 31 30 30 30 29 28 27 25 24 23 23 23
47 49 51 54 56 58 61 61 52 35 25 25 26 23 21 21 22 25 26 26 25 24 24 25 25 24 23 23 23 23 24 25 25 25 26 26 26 25 24 23 22 21 20 19
46 48 50 52 54 57 59 59 54 39 25 21 22 21 18 16 16 18 21 22 20 18 17 18 19 20 20 20 20 19 19 18 18 19 19 19 20 21 21 20 18 16 15 16

GEFSNGP_500_meanwind_012.txt.gz
Wind_Speed
15 14 15 19 21 23 27 30 34 38 42 49 50 51 54 57 60 64 67 68 70 72 74 76 78 78 78 77 76 75 75 76 78 80 81 82 82 81 79 76 75 72 70 67
17 14 16 21 23 26 31 36 40 42 44 50 54 56 59 62 65 68 70 72 75 78 79 78 74 70 64 59 55 53 52 53 55 58 62 68 72 77 80 81 81 79 76 72
18 15 16 23 25 30 35 40 44 48 50 52 55 59 62 64 67 71 75 77 78 75 69 61 53 48 44 41 38 37 35 33 32 32 33 36 41 48 56 64 71 75 75 72
19 20 22 26 29 35 39 44 48 49 52 55 58 61 63 67 73 77 78 75 68 57 49 43 41 40 40 40 40 40 40 39 38 37 34 33 32 31 31 34 42 50 57 63
23 23 28 33 36 40 44 48 52 53 56 60 62 65 68 72 76 74 68 59 49 43 40 40 41 42 43 44 45 45 45 45 45 43 41 39 36 33 32 31 30 31 35 43
27 30 32 37 41 44 47 49 55 57 60 62 65 69 71 73 68 61 53 47 43 42 43 44 46 48 49 49 49 49 48 48 48 47 45 43 40 37 35 34 32 30 30 32
29 32 37 40 44 45 47 51 53 56 60 64 69 73 72 65 55 49 45 45 45 47 49 51 52 53 54 53 53 51 50 49 48 47 46 44 42 40 38 37 35 33 32 31
31 34 40 43 46 49 52 55 58 61 64 68 71 70 64 55 49 48 48 49 51 53 55 56 56 56 55 54 53 52 51 49 48 47 46 44 43 41 41 39 37 35 33 32
34 37 42 46 49 52 55 58 60 63 66 71 71 65 56 50 49 50 52 54 56 57 58 57 57 57 56 55 53 52 51 49 47 46 44 43 42 42 41 40 38 36 34 33
35 38 42 47 50 53 56 58 62 65 69 72 67 59 51 50 51 54 56 58 59 58 57 55 54 53 54 53 52 51 49 47 45 43 42 40 40 40 39 39 38 36 34 33
39 42 43 46 50 54 57 60 63 67 70 69 61 54 51 52 54 57 59 60 59 59 57 55 53 52 50 49 47 46 43 41 39 37 36 36 36 35 35 35 34 33 31 31
41 44 47 49 52 56 58 61 64 67 69 64 56 52 52 54 56 59 60 60 60 59 57 53 50 47 44 41 39 37 34 33 32 31 31 32 32 31 31 31 31 30 30 29
42 44 47 49 52 56 59 61 64 68 67 59 52 50 52 54 56 59 60 61 59 57 54 51 46 41 37 33 29 28 27 27 27 27 27 27 26 25 25 26 27 28 27 25
44 45 46 49 52 55 58 61 64 66 62 55 50 49 51 53 56 59 61 62 59 56 52 47 41 35 29 26 24 22 21 21 21 20 20 19 18 19 20 21 23 22 22 21
44 45 47 48 51 55 57 60 62 64 60 52 48 47 49 53 56 59 61 62 60 57 51 45 39 33 28 24 21 18 17 15 13 10 8 9 12 16 19 21 20 18 18 17
42 43 45 47 50 54 57 59 62 63 59 50 45 45 48 51 54 57 59 60 59 56 52 48 42 36 31 27 23 20 17 13 9 5 7 13 18 21 22 20 17 16 15 16
41 43 45 47 50 53 56 59 61 62 57 48 43 43 45 49 53 55 57 58 58 56 53 50 44 39 35 30 26 23 21 19 18 18 19 21 22 22 21 19 17 16 16 18
41 43 46 48 51 53 55 57 59 60 56 47 40 40 42 46 50 52 54 55 55 55 53 50 46 42 38 32 27 24 22 21 21 21 22 22 21 20 19 18 17 18 19 21
40 42 44 47 49 52 54 55 57 58 56 46 38 36 39 42 45 48 50 51 52 52 52 50 47 43 40 35 30 25 22 20 19 18 18 19 19 19 18 18 19 20 21 22
40 42 43 45 48 51 53 54 54 56 55 47 37 33 35 38 41 43 45 46 48 49 49 49 47 45 42 38 34 30 26 21 18 16 16 16 17 18 19 21 22 22 23 26
40 42 42 44 47 50 51 52 52 53 54 49 39 31 31 34 37 39 40 40 41 42 43 44 44 43 41 40 39 36 33 29 25 20 17 17 19 21 22 23 23 24 25 28
39 41 41 43 46 48 50 50 51 52 52 49 40 31 28 28 31 34 35 36 36 37 37 38 39 39 39 38 38 38 37 36 33 30 27 25 25 25 25 25 26 26 27 28
39 41 41 43 45 47 48 48 49 50 50 49 42 32 27 26 27 29 30 31 30 31 32 33 33 34 35 35 36 37 38 39 38 37 36 34 32 30 29 29 28 28 28 27
40 41 41 42 44 45 46 45 46 47 49 49 45 36 27 24 24 25 26 27 27 26 26 27 27 28 30 30 31 31 33 34 34 35 34 34 33 31 29 28 27 26 25 25
40 41 41 42 44 44 44 43 43 44 46 48 46 40 30 23 21 21 21 22 22 22 21 21 22 22 23 24 25 25 26 26 27 28 28 27 27 26 25 24 24 23 23 23
39 40 41 42 43 43 42 42 42 42 43 45 45 41 32 24 20 19 18 18 18 18 17 17 17 17 17 17 18 18 19 19 19 20 20 20 21 21 21 20 20 19 19 19
39 40 40 41 43 42 42 41 40 41 41 42 44 42 34 25 20 18 17 16 15 15 14 13 13 14 13 13 12 12 12 12 12 13 14 15 15 15 15 15 15 14 14 14

GEFSNGP_500_meanwind_018.txt.gz
Wind_Speed
13 14 15 15 17 20 23 27 30 33 35 39 43 46 49 52 55 58 61 63 65 65 62 59 58 58 57 57 56 54 52 50 46 43 41 38 36 36 37 40 45 52 60 67
15 17 16 15 18 22 26 28 29 32 36 40 44 47 49 52 56 59 61 61 60 58 55 55 55 55 56 56 56 55 53 50 48 45 43 41 38 37 35 35 35 37 40 47
17 20 19 19 23 26 29 30 33 37 41 44 46 49 52 56 59 60 59 57 54 53 53 55 56 57 58 58 58 57 56 54 52 50 48 45 43 40 38 36 34 34 33 34
21 22 23 24 27 30 33 35 37 40 44 47 51 52 55 58 58 56 54 52 52 52 54 56 58 60 60 60 60 59 58 56 54 53 51 49 47 44 42 40 37 36 35 34
24 26 27 28 31 33 36 38 40 43 46 49 52 52 53 55 55 53 52 52 52 54 56 58 60 61 61 61 60 59 57 55 53 52 52 51 48 46 44 43 41 39 37 36
25 27 29 31 33 35 38 39 42 45 48 51 54 56 55 54 52 51 50 51 52 55 57 59 61 62 61 58 56 54 52 50 48 48 50 50 48 46 45 43 41 40 39 37
26 28 30 33 36 37 38 41 44 48 52 55 57 58 56 53 50 49 49 51 53 56 58 60 61 61 58 55 52 48 45 43 42 43 45 46 46 44 43 42 41 39 38 37
28 30 32 34 36 38 41 44 47 50 53 55 56 56 54 51 48 47 49 51 54 57 58 59 60 59 55 51 48 44 40 37 36 37 39 40 41 40 39 39 39 38 36 35
28 30 32 35 38 42 44 46 48 51 53 54 55 55 53 50 47 47 49 52 55 58 58 59 59 57 52 49 45 41 36 32 29 29 30 32 34 35 35 35 34 34 34 33
27 29 33 36 39 41 43 44 47 50 53 54 55 54 53 49 46 47 49 52 55 57 58 58 57 54 51 48 43 39 33 28 24 22 22 24 26 28 29 30 30 30 31 31
25 29 33 35 37 39 41 44 47 50 52 54 55 54 52 49 46 46 49 51 55 57 58 58 56 53 49 46 43 38 33 27 21 18 15 16 18 20 23 24 26 28 29 30
28 30 32 34 36 39 42 45 48 51 52 53 55 54 51 48 45 45 48 50 54 56 58 58 55 51 47 45 43 39 34 28 20 15 10 9 10 14 17 19 22 24 26 28
29 31 33 35 37 40 43 45 48 51 53 53 54 53 51 48 45 44 46 49 53 56 58 57 56 51 46 43 42 40 36 30 22 15 9 5 5 8 12 15 17 20 23 25
30 32 33 35 37 40 42 45 47 50 52 52 53 53 51 47 45 43 45 48 51 54 56 56 56 51 46 42 40 39 37 33 27 19 12 5 2 5 8 12 14 17 19 21
32 33 34 35 37 40 42 44 47 49 51 51 52 52 51 48 44 42 43 45 48 51 53 55 55 51 45 41 39 38 36 34 31 26 21 15 11 8 8 9 12 14 16 18
34 34 34 35 37 40 42 44 46 49 51 51 51 52 51 48 44 41 41 43 45 48 51 53 54 52 46 40 37 36 34 33 31 29 26 22 19 16 14 12 11 13 14 16
34 34 35 35 37 40 43 45 46 49 51 51 51 51 50 48 44 40 38 40 42 44 47 50 52 52 47 40 36 34 32 31 31 29 27 24 21 19 17 16 14 13 13 14
34 34 35 36 37 40 42 44 46 48 50 51 50 50 49 49 44 40 36 36 38 40 43 46 48 49 48 42 36 33 31 30 29 28 26 25 23 21 19 17 15 13 13 14
34 35 36 37 38 40 42 44 46 47 49 50 49 49 49 48 46 40 35 33 34 35 38 41 44 45 46 44 38 34 31 29 28 26 25 24 22 20 18 17 16 16 16 17
35 36 37 38 39 41 43 44 45 47 48 48 48 48 47 47 45 40 35 32 31 32 34 36 38 40 42 41 39 36 32 29 28 27 25 24 23 22 21 21 21 21 22 24
36 37 38 39 40 42 43 44 45 46 47 47 47 46 46 46 45 41 34 29 28 28 29 30 32 34 37 38 37 35 33 30 29 27 26 25 24 24 24 25 26 26 27 28
38 38 39 40 42 43 43 44 45 45 46 46 46 45 44 43 44 42 36 30 26 25 25 25 26 29 31 33 33 32 31 29 28 28 27 26 25 24 25 26 27 27 28 28
39 40 41 42 43 43 44 44 44 45 46 46 45 43 42 42 41 40 36 30 25 22 21 21 21 23 25 27 27 28 27 27 26 25 25 24 24 23 23 24 24 25 24 25
43 44 43 43 44 44 44 44 44 45 45 45 44 43 41 40 40 39 37 32 25 21 19 18 18 18 19 20 22 22 23 24 23 22 22 22 21 21 21 21 22 22 22 23
46 47 46 44 44 44 43 43 42 43 43 43 42 42 40 39 38 38 37 33 27 21 18 15 15 14 14 15 15 17 18 20 20 20 19 19 19 18 18 18 19 19 20 21
45 46 46 45 44 43 42 41 40 41 41 40 40 39 39 38 36 36 36 33 27 22 17 14 13 12 11 11 10 11 12 15 15 16 16 17 17 16 16 16 16 17 17 18
42 44 45 44 42 41 40 39 38 39 39 38 37 37 37 36 35 34 34 33 28 23 18 14 12 10 9 8 7 6 7 8 10 11 12 12 13 13 14 14 15 15 16 16